W0WC Weather Reports


time (UTC)temp
F
wind
direction
speed
knots
gust
knots
rain 1hr
in
rain 24hr
in
rain mn
in
humidity
%
barometer
mb
20260510221017 65 319 4.3 5.2 0.00 0.00 0.00 49 1020.6
20260510220514 66 16 2.6 2.6 0.00 0.00 0.00 48 1020.5
20260510220010 66 32 3.5 3.5 0.00 0.00 0.00 46 1020.5
20260510215508 66 4 1.7 2.6 0.00 0.00 0.00 47 1020.5
20260510215005 66 22 2.6 3.5 0.00 0.00 0.00 47 1020.6
20260510214502 66 326 4.3 5.2 0.00 0.00 0.00 47 1020.7
20260510213958 67 11 5.2 6.1 0.00 0.00 0.00 47 1020.3
20260510213455 67 19 5.2 7.8 0.00 0.00 0.00 43 1020.5
20260510212952 68 6 3.5 5.2 0.00 0.00 0.00 42 1020.6
20260510212449 68 23 4.3 5.2 0.00 0.00 0.00 42 1020.3
20260510211945 68 10 2.6 3.5 0.00 0.00 0.00 42 1020.3
20260510211443 68 356 3.5 5.2 0.00 0.00 0.00 41 1020.2
20260510210942 69 5 5.2 7.0 0.00 0.00 0.00 41 1020.1
20260510210438 69 39 2.6 2.6 0.00 0.00 0.00 43 1020.1
20260510205937 69 3 3.5 3.5 0.00 0.00 0.00 43 1020.1
20260510205433 69 293 6.1 7.8 0.00 0.00 0.00 42 1020.1
20260510204929 70 331 4.3 5.2 0.00 0.00 0.00 41 1020.3
20260510204426 69 0 1.7 1.7 0.00 0.00 0.00 41 1020.2
20260510203922 70 291 7.0 8.7 0.00 0.00 0.00 40 1020.5
20260510203420 71 22 1.7 2.6 0.00 0.00 0.00 42 1020.3
20260510202920 71 354 3.5 6.1 0.00 0.00 0.00 40 1020.5
20260510202416 70 30 1.7 1.7 0.00 0.00 0.00 41 1020.6
20260510201912 70 32 3.5 6.1 0.00 0.00 0.00 40 1020.5
20260510201410 70 27 4.3 5.2 0.00 0.00 0.00 39 1020.6
20260510200906 69 25 3.5 7.0 0.00 0.00 0.00 38 1020.4
20260510200405 69 19 0.9 2.6 0.00 0.00 0.00 40 1020.4
20260510195900 69 6 7.8 9.6 0.00 0.00 0.00 41 1020.4
20260510195357 69 355 6.1 12.2 0.00 0.00 0.00 40 1020.4
20260510194851 69 7 0.9 1.7 0.00 0.00 0.00 43 1020.5
20260510194349 69 6 3.5 5.2 0.00 0.00 0.00 41 1020.4
20260510193844 69 23 5.2 7.0 0.00 0.00 0.00 40 1020.2
20260510193339 69 41 5.2 7.8 0.00 0.00 0.00 41 1020.3
20260510192836 69 32 3.5 5.2 0.00 0.00 0.00 41 1020.6
20260510192331 69 41 5.2 7.0 0.00 0.00 0.00 41 1020.5
20260510191827 70 8 3.5 6.1 0.00 0.00 0.00 41 1020.3
20260510191323 70 33 3.5 3.5 0.00 0.00 0.00 41 1020.4
20260510190821 70 32 1.7 1.7 0.00 0.00 0.00 41 1020.5
20260510190319 71 336 5.2 7.0 0.00 0.00 0.00 40 1020.5
20260510185815 71 333 3.5 3.5 0.00 0.00 0.00 41 1020.5
20260510185313 71 16 7.0 8.7 0.00 0.00 0.00 40 1020.3
20260510184810 71 3 2.6 3.5 0.00 0.00 0.00 39 1020.5
20260510184307 70 53 1.7 2.6 0.00 0.00 0.00 41 1020.5
20260510183807 71 356 4.3 6.1 0.00 0.00 0.00 38 1020.4
20260510183302 71 29 5.2 7.8 0.00 0.00 0.00 40 1020.5
20260510182758 70 13 1.7 1.7 0.00 0.00 0.00 39 1020.5
20260510182254 71 38 3.5 6.1 0.00 0.00 0.00 39 1020.6
20260510181751 70 41 3.5 3.5 0.00 0.00 0.00 41 1020.6
20260510181248 70 37 7.8 9.6 0.00 0.00 0.00 39 1020.6
20260510180744 70 64 4.3 7.0 0.00 0.00 0.00 39 1020.5
20260510180242 70 15 5.2 7.8 0.00 0.00 0.00 40 1020.6
20260510175738 70 15 3.5 3.5 0.00 0.00 0.00 39 1020.5
20260510175234 69 23 3.5 5.2 0.00 0.00 0.00 41 1020.3
20260510174731 69 10 5.2 7.8 0.00 0.00 0.00 40 1020.2
20260510174228 69 11 5.2 7.0 0.00 0.00 0.00 40 1020.4
20260510173725 69 17 4.3 6.1 0.00 0.00 0.00 40 1020.2
20260510173220 69 39 5.2 7.0 0.00 0.00 0.00 42 1020.2
20260510172715 70 33 6.1 8.7 0.00 0.00 0.00 40 1020.1
20260510172212 69 47 5.2 7.0 0.00 0.00 0.00 41 1020.3
20260510171709 68 348 5.2 7.0 0.00 0.00 0.00 41 1020.2
20260510171206 68 36 7.8 11.3 0.00 0.00 0.00 40 1020.0
20260510170703 69 29 2.6 3.5 0.00 0.00 0.00 42 1019.9
20260510170159 69 42 0.9 0.9 0.00 0.00 0.00 42 1019.8
20260510165655 68 11 2.6 6.1 0.00 0.00 0.00 43 1020.0
20260510165151 68 11 5.2 7.0 0.00 0.00 0.00 43 1020.1
20260510164649 68 356 3.5 6.1 0.00 0.00 0.00 43 1020.1
20260510164146 68 26 5.2 7.8 0.00 0.00 0.00 44 1020.1
20260510163641 69 359 3.5 5.2 0.00 0.00 0.00 42 1020.0
20260510163138 68 29 4.3 6.1 0.00 0.00 0.00 43 1019.8
20260510162637 68 28 2.6 3.5 0.00 0.00 0.00 43 1019.8
20260510162134 67 5 4.3 7.0 0.00 0.00 0.00 44 1019.8
20260510161630 67 47 5.2 7.0 0.00 0.00 0.00 45 1019.8
20260510161127 66 39 3.5 3.5 0.00 0.00 0.00 46 1019.5
20260510160624 66 38 6.1 8.7 0.00 0.00 0.00 47 1019.6
20260510160124 66 3 7.8 12.2 0.00 0.00 0.00 48 1019.4
20260510155620 66 18 3.5 3.5 0.00 0.00 0.00 50 1019.4
20260510155116 66 20 4.3 6.1 0.00 0.00 0.00 50 1019.5
20260510154612 65 36 3.5 5.2 0.00 0.00 0.00 51 1019.5
20260510154108 65 23 7.0 12.2 0.00 0.00 0.00 51 1019.6
20260510153603 64 10 4.3 6.1 0.00 0.00 0.00 54 1019.1
20260510153100 64 35 4.3 6.1 0.00 0.00 0.00 54 1019.0
20260510152557 64 40 1.7 1.7 0.00 0.00 0.00 54 1018.8
20260510152053 64 22 8.7 11.3 0.00 0.00 0.00 54 1018.8
20260510151550 64 342 2.6 3.5 0.00 0.00 0.00 56 1018.8
20260510151048 64 88 4.3 7.0 0.00 0.00 0.00 58 1018.7
20260510150547 64 27 5.2 7.8 0.00 0.00 0.00 60 1018.6
20260510150044 64 12 6.1 7.8 0.00 0.00 0.00 59 1018.9
20260510145541 63 334 3.5 5.2 0.00 0.00 0.00 61 1018.7
20260510145037 62 30 3.5 7.0 0.00 0.00 0.00 64 1018.8
20260510144534 62 46 7.8 11.3 0.00 0.00 0.00 64 1018.9
20260510144030 62 19 5.2 7.0 0.00 0.00 0.00 67 1019.0
20260510143525 62 349 4.3 7.8 0.00 0.00 0.00 68 1019.0
20260510143022 62 41 8.7 11.3 0.00 0.00 0.00 69 1019.0
20260510142519 62 1 7.8 9.6 0.00 0.00 0.00 69 1019.1
20260510142015 62 344 3.5 6.1 0.00 0.00 0.00 70 1019.4
20260510141512 62 10 2.6 2.6 0.00 0.00 0.00 70 1019.4
20260510141010 62 16 1.7 2.6 0.00 0.00 0.00 71 1019.2
20260510140506 62 36 4.3 5.2 0.00 0.00 0.00 70 1019.1
20260510140005 62 37 4.3 5.2 0.00 0.00 0.00 70 1019.0
20260510135501 62 33 5.2 7.8 0.00 0.00 0.00 69 1018.9
20260510134958 62 23 1.7 2.6 0.00 0.00 0.00 69 1018.9
20260510134455 62 30 1.7 2.6 0.00 0.00 0.00 70 1018.9
20260510133952 62 13 0.9 1.7 0.00 0.00 0.00 70 1018.5
20260510133448 62 17 5.2 6.1 0.00 0.00 0.00 70 1018.7
20260510132944 62 358 3.5 5.2 0.00 0.00 0.00 70 1018.5
20260510132441 62 7 0.9 1.7 0.00 0.00 0.00 72 1018.3
20260510131938 62 18 2.6 6.1 0.00 0.00 0.00 72 1018.3
20260510131435 62 57 0.9 1.7 0.00 0.00 0.00 72 1018.4
20260510130932 62 356 2.6 3.5 0.00 0.00 0.00 73 1018.4
20260510130429 62 78 3.5 3.5 0.00 0.00 0.00 73 1018.3
20260510125926 62 19 2.6 2.6 0.00 0.00 0.00 74 1017.9
20260510125422 62 77 3.5 7.0 0.00 0.00 0.00 73 1017.8
20260510124919 62 19 3.5 5.2 0.00 0.00 0.00 73 1018.0
20260510124416 62 330 3.5 5.2 0.00 0.00 0.00 73 1017.6
20260510123912 62 14 1.7 1.7 0.00 0.00 0.00 74 1017.5
20260510123407 61 11 2.6 7.0 0.00 0.00 0.00 75 1017.4
20260510122904 61 20 1.7 3.5 0.00 0.00 0.00 75 1017.3
20260510122359 61 21 1.7 3.5 0.00 0.00 0.00 76 1017.3
20260510121855 60 21 3.5 5.2 0.00 0.00 0.00 76 1017.2
20260510121353 60 25 0.9 1.7 0.00 0.00 0.00 76 1017.0
20260510120850 60 9 3.5 5.2 0.00 0.00 0.00 76 1017.0
20260510120348 60 20 2.6 3.5 0.00 0.00 0.00 76 1016.7
20260510115849 60 66 0.9 0.9 0.00 0.00 0.00 77 1016.5
20260510115346 60 18 0.9 0.9 0.00 0.00 0.00 77 1016.5
20260510114842 60 22 0.9 0.9 0.00 0.00 0.00 76 1016.3
20260510114339 60 22 2.6 5.2 0.00 0.00 0.00 76 1016.2
20260510113839 60 10 2.6 3.5 0.00 0.00 0.00 76 1016.0
20260510113336 60 25 1.7 3.5 0.00 0.00 0.00 76 1016.0
20260510112833 60 29 0.9 1.7 0.00 0.00 0.00 75 1015.9
20260510112330 61 12 0.9 0.9 0.00 0.00 0.00 75 1016.0
20260510111825 61 14 3.5 3.5 0.00 0.00 0.00 75 1015.9
20260510111323 61 14 3.5 3.5 0.00 0.00 0.00 75 1016.1
20260510110822 61 21 0.9 1.7 0.00 0.00 0.00 75 1015.9
20260510110321 61 27 1.7 2.6 0.00 0.00 0.00 75 1015.4
20260510105816 61 45 1.7 2.6 0.00 0.00 0.00 74 1015.7
20260510105316 61 11 4.3 6.1 0.00 0.00 0.00 75 1015.5
20260510104812 61 10 2.6 3.5 0.00 0.00 0.00 74 1015.4
20260510104310 61 346 1.7 1.7 0.00 0.00 0.00 74 1015.3
20260510103806 61 31 1.7 1.7 0.00 0.00 0.00 74 1015.3
20260510103303 61 8 1.7 1.7 0.00 0.00 0.00 74 1015.2
20260510102804 61 17 0.9 1.7 0.00 0.00 0.00 75 1015.2
20260510102259 61 9 0.9 0.9 0.00 0.00 0.00 75 1015.3
20260510101757 61 12 1.7 1.7 0.00 0.00 0.00 76 1015.4
20260510101255 61 18 0.0 0.0 0.00 0.00 0.00 74 1015.3
20260510100751 61 14 0.0 0.0 0.00 0.00 0.00 75 1015.1
20260510100249 61 15 0.0 0.0 0.00 0.00 0.00 74 1015.3
20260510095744 62 23 0.0 0.0 0.00 0.00 0.00 73 1015.0
20260510095239 62 30 0.0 0.9 0.00 0.00 0.00 73 1015.1
20260510094738 62 12 0.0 0.0 0.00 0.00 0.00 72 1015.2
20260510094234 62 25 0.0 0.0 0.00 0.00 0.00 72 1015.1
20260510093730 62 10 1.7 1.7 0.00 0.00 0.00 72 1015.1
20260510093228 63 13 0.0 0.0 0.00 0.00 0.00 71 1014.9
20260510092724 63 17 0.0 0.0 0.00 0.00 0.00 71 1014.7
20260510092219 63 17 0.0 0.0 0.00 0.00 0.00 68 1014.6
20260510091715 64 19 0.9 0.9 0.00 0.00 0.00 68 1014.1
20260510091212 63 49 0.9 0.9 0.00 0.00 0.00 68 1014.2
20260510090708 63 21 0.0 0.0 0.00 0.00 0.00 68 1013.9
20260510090205 63 19 0.0 0.0 0.00 0.00 0.00 68 1014.2
20260510085700 63 19 0.0 0.0 0.00 0.00 0.00 69 1014.0
20260510085156 63 22 0.0 0.0 0.00 0.00 0.00 69 1013.9
20260510084652 63 19 0.0 0.0 0.00 0.00 0.00 68 1013.9
20260510084149 64 23 0.0 0.0 0.00 0.00 0.00 68 1013.7
20260510083646 64 26 0.0 0.0 0.00 0.00 0.00 68 1013.8
20260510083143 64 37 0.0 0.0 0.00 0.00 0.00 68 1013.9
20260510082639 64 23 0.0 0.0 0.00 0.00 0.00 68 1013.6
20260510082134 64 10 0.0 0.0 0.00 0.00 0.00 68 1013.8
20260510081629 64 15 0.0 0.0 0.00 0.00 0.00 67 1013.8
20260510081126 65 19 0.0 0.0 0.00 0.00 0.00 66 1013.9
20260510080625 65 12 0.0 0.0 0.00 0.00 0.00 65 1013.8
20260510080121 65 14 0.0 0.0 0.00 0.00 0.00 64 1013.7
20260510075619 66 36 0.9 0.9 0.00 0.00 0.00 63 1013.8
20260510075116 66 24 0.0 0.0 0.00 0.00 0.00 62 1013.8
20260510074613 66 13 0.9 0.9 0.00 0.00 0.00 61 1014.0
20260510074109 67 7 0.9 0.9 0.00 0.00 0.00 60 1013.8
20260510073605 67 10 0.9 0.9 0.00 0.00 0.00 60 1013.7
20260510073102 67 15 0.0 0.0 0.00 0.00 0.00 60 1013.9
20260510072559 68 7 0.0 0.9 0.00 0.00 0.00 58 1013.9
20260510072054 68 323 1.7 1.7 0.00 0.00 0.00 58 1013.8
20260510071551 68 18 0.0 0.0 0.00 0.00 0.00 57 1013.9
20260510071049 68 14 0.9 0.9 0.00 0.00 0.00 57 1014.1
20260510070545 68 322 1.7 1.7 0.00 0.00 0.00 59 1014.1
20260510070043 68 1 1.7 2.6 0.00 0.00 0.00 60 1013.7
20260510065539 68 1 2.6 2.6 0.00 0.00 0.00 60 1013.5
20260510065035 68 9 1.7 1.7 0.00 0.00 0.00 58 1013.5
20260510064531 69 17 1.7 1.7 0.00 0.00 0.00 55 1013.5
20260510064028 69 314 3.5 5.2 0.00 0.00 0.00 55 1013.1
20260510063525 69 329 1.7 1.7 0.00 0.00 0.00 54 1012.7
20260510063022 69 352 1.7 1.7 0.00 0.00 0.00 54 1012.2
20260510062518 69 103 2.6 5.2 0.00 0.00 0.00 55 1012.6
20260510062013 69 115 1.7 2.6 0.00 0.00 0.00 54 1012.9
20260510061510 69 66 1.7 1.7 0.00 0.00 0.00 54 1012.9
20260510061007 69 66 0.9 1.7 0.00 0.00 0.00 56 1013.1
20260510060504 69 52 0.9 1.7 0.00 0.00 0.00 55 1013.3
20260510055959 69 42 0.9 0.9 0.00 0.00 0.00 54 1013.2
20260510055455 69 45 0.9 0.9 0.00 0.00 0.00 54 1013.1
20260510054954 69 37 0.0 0.0 0.00 0.00 0.00 54 1013.2
20260510054449 69 33 0.9 0.9 0.00 0.00 0.00 55 1013.5
20260510053944 68 17 0.0 0.0 0.00 0.00 0.00 56 1013.4
20260510053440 68 108 0.9 1.7 0.00 0.00 0.00 58 1013.4
20260510052936 68 341 0.9 0.9 0.00 0.00 0.00 58 1013.5
20260510052432 68 336 0.0 0.9 0.00 0.00 0.00 60 1013.5
20260510051928 67 319 0.9 0.9 0.00 0.00 0.00 60 1013.6
20260510051425 66 72 0.9 1.7 0.00 0.00 0.00 62 1013.9
20260510050921 66 12 0.0 0.0 0.00 0.00 0.00 65 1013.6
20260510050418 66 11 0.0 0.0 0.00 0.00 0.00 67 1013.6
20260510045915 66 3 0.0 0.0 0.00 0.00 0.00 66 1013.5
20260510045413 66 9 0.0 0.0 0.00 0.00 0.00 67 1013.7
20260510044909 66 10 0.0 0.0 0.00 0.00 0.00 66 1013.7
20260510044406 66 10 0.0 0.0 0.00 0.00 0.00 64 1013.4
20260510043903 67 10 0.0 0.0 0.00 0.00 0.00 63 1013.5
20260510043358 67 10 0.0 0.0 0.00 0.00 0.00 60 1013.4
20260510042857 67 7 0.0 0.0 0.00 0.00 0.00 61 1013.3
20260510042352 67 4 0.0 0.0 0.00 0.00 0.00 62 1013.4
20260510041848 67 27 0.0 0.9 0.00 0.00 0.00 63 1013.4
20260510041346 66 24 0.0 0.0 0.00 0.00 0.00 63 1013.3
20260510040843 66 24 0.0 0.0 0.00 0.00 0.00 64 1013.4
20260510040340 66 26 0.0 0.0 0.00 0.00 0.00 64 1013.4
20260510035835 66 14 0.0 0.0 0.00 0.01 0.01 65 1013.5
20260510035331 65 20 0.0 0.0 0.00 0.01 0.01 66 1013.4
20260510034827 65 22 0.0 0.0 0.00 0.01 0.01 66 1013.3
20260510034325 65 17 0.0 0.0 0.00 0.01 0.01 66 1013.2
20260510033821 65 0 0.0 0.0 0.00 0.01 0.01 67 1013.1
20260510033319 65 26 0.0 0.0 0.00 0.01 0.01 67 1012.9
20260510032815 65 14 0.0 0.0 0.00 0.01 0.01 66 1012.9
20260510032312 65 2 0.0 0.0 0.00 0.01 0.01 66 1012.7
20260510031807 65 19 0.0 0.0 0.00 0.01 0.01 65 1012.8
20260510031304 66 19 0.0 0.0 0.00 0.01 0.01 66 1012.7
20260510030803 66 17 0.0 0.0 0.00 0.01 0.01 65 1012.5
20260510030300 66 16 0.0 0.0 0.00 0.01 0.01 63 1012.7
20260510025757 67 13 0.0 0.0 0.00 0.01 0.01 62 1012.6
20260510025255 67 17 0.0 0.0 0.00 0.01 0.01 61 1012.5
20260510024751 67 19 0.0 0.0 0.00 0.01 0.01 61 1012.3
20260510024248 67 17 0.0 0.0 0.00 0.01 0.01 62 1012.4
20260510023744 67 10 0.0 0.0 0.00 0.01 0.01 61 1012.3
20260510023241 68 9 0.0 0.0 0.00 0.01 0.01 60 1012.2
20260510022737 68 354 0.0 0.0 0.00 0.01 0.01 59 1012.1
20260510022237 68 352 0.0 0.0 0.00 0.01 0.01 59 1012.1
20260510021732 67 7 0.0 0.0 0.00 0.01 0.01 60 1011.6
20260510021230 68 14 0.0 0.0 0.00 0.01 0.01 61 1011.7
20260510020730 68 10 0.0 0.0 0.00 0.01 0.01 60 1011.6
20260510020225 69 9 0.0 0.0 0.00 0.01 0.01 58 1011.4
20260510015721 70 9 0.0 0.0 0.00 0.01 0.01 55 1011.3
20260510015218 70 358 0.0 0.0 0.00 0.01 0.01 55 1011.3
20260510014713 70 352 0.0 0.0 0.00 0.01 0.01 55 1011.1
20260510014211 70 359 0.0 0.0 0.00 0.01 0.01 54 1011.0
20260510013706 71 5 0.0 0.0 0.00 0.01 0.01 54 1010.7
20260510013202 71 0 0.0 0.0 0.00 0.01 0.01 54 1010.9
20260510012701 72 9 0.0 0.0 0.00 0.01 0.01 51 1010.7
20260510012157 72 14 0.0 0.0 0.00 0.01 0.01 49 1010.7
20260510011652 73 14 0.0 0.0 0.00 0.01 0.01 49 1010.3
20260510011148 74 14 0.0 0.0 0.00 0.01 0.01 48 1010.3
20260510010644 75 14 0.0 0.0 0.00 0.01 0.01 46 1010.3
20260510010142 75 11 0.0 0.0 0.00 0.01 0.01 44 1010.2
20260510005637 76 19 0.0 0.0 0.00 0.01 0.01 44 1010.3
20260510005135 76 30 0.0 0.9 0.00 0.01 0.01 43 1010.3
20260510004633 77 359 0.0 0.0 0.00 0.01 0.01 43 1010.1
20260510004131 77 23 0.0 0.9 0.00 0.01 0.01 41 1010.3
20260510003627 78 332 1.7 1.7 0.00 0.01 0.01 40 1010.1
20260510003123 78 257 1.7 1.7 0.00 0.01 0.01 39 1010.1
20260510002617 79 123 2.6 3.5 0.00 0.01 0.01 38 1010.2
20260510002115 79 200 3.5 5.2 0.00 0.01 0.01 38 1010.2
20260510001612 80 214 2.6 3.5 0.00 0.01 0.01 37 1010.0
20260510001111 80 179 1.7 2.6 0.00 0.01 0.01 36 1010.1
20260510000610 80 103 0.9 1.7 0.00 0.01 0.01 34 1010.1
20260510000108 81 220 0.9 1.7 0.00 0.01 0.01 35 1010.3
20260509235604 81 180 2.6 2.6 0.00 0.01 0.01 34 1010.2
20260509235101 82 188 2.6 2.6 0.00 0.01 0.01 34 1010.1
20260509234557 81 6 0.0 0.0 0.00 0.01 0.01 35 1010.3
20260509234055 81 311 0.9 0.9 0.00 0.01 0.01 34 1010.1
20260509233552 83 221 2.6 3.5 0.00 0.01 0.01 31 1010.1
20260509233050 83 6 0.9 1.7 0.00 0.01 0.01 33 1010.2
20260509232546 84 359 0.0 0.0 0.00 0.01 0.01 32 1010.2
20260509232043 84 345 0.9 0.9 0.00 0.01 0.01 32 1010.3
20260509231539 84 18 0.0 0.0 0.00 0.01 0.01 30 1010.3
20260509231037 84 318 0.9 0.9 0.00 0.01 0.01 30 1010.4
20260509230533 84 13 0.9 1.7 0.00 0.01 0.01 31 1010.3
20260509230031 84 338 0.9 0.9 0.00 0.01 0.01 28 1010.2
20260509225526 84 38 0.0 0.0 0.00 0.01 0.01 30 1010.4
20260509225022 84 27 0.9 1.7 0.00 0.01 0.01 29 1010.4
20260509224518 84 26 0.0 0.9 0.00 0.01 0.01 29 1010.3
20260509224014 84 260 1.7 1.7 0.00 0.01 0.01 30 1010.3
20260509223511 85 323 2.6 3.5 0.00 0.01 0.01 30 1010.2
20260509223010 84 34 0.9 1.7 0.00 0.01 0.01 32 1010.2
20260509222505 83 166 5.2 6.1 0.00 0.01 0.01 30 1010.5
20260509222001 83 181 4.3 6.1 0.00 0.01 0.01 30 1010.3
20260509221457 85 220 3.5 3.5 0.00 0.01 0.01 31 1010.4